DW1458 Weather Reports


Display with metric or nautical units.
time (UTC)temp
F
wind
direction
speed
MPH
gust
MPH
rain 1hr
in
rain 24hr
in
rain mn
in
humidity
%
barometer
mb
20260506201516 80 77 3.0 6.0 0.00 0.00 0.00 83 1014.5
20260506194509 80 94 2.0 5.0 0.00 0.00 0.00 83 1014.7
20260506193016 80 139 2.0 7.0 0.00 0.00 0.00 84 1014.8
20260506191521 80 237 2.0 5.0 0.00 0.00 0.00 84 1015.0
20260506190015 79 98 3.0 7.0 0.00 0.00 0.00 87 1015.1
20260506183013 77 147 1.0 4.0 0.00 0.00 0.00 90 1015.7
20260506180022 78 98 2.0 6.0 0.00 0.00 0.00 87 1016.0
20260506173015 78 101 1.0 5.0 0.00 0.00 0.00 86 1016.0
20260506170020 78 30 1.0 7.0 0.00 0.00 0.00 87 1015.9
20260506163010 77 90 2.0 6.0 0.00 0.00 0.00 87 1016.2
20260506160020 77 153 1.0 2.0 0.00 0.00 0.00 87 1016.1
20260506141524 75 93 1.0 3.0 0.00 0.00 0.00 90 1015.5
20260506134520 74 121 1.0 4.0 0.00 0.00 0.00 91 1015.3
20260506133024 73 110 0.0 4.0 0.00 0.00 0.00 92 1015.2
20260506131533 73 124 0.0 2.0 0.00 0.00 0.00 93 1015.0
20260506130026 72 116 0.0 2.0 0.00 0.00 0.00 93 1015.0
20260506124517 72 83 0.0 2.0 0.00 0.00 0.00 94 1014.8
20260506123024 72 115 0.0 2.0 0.00 0.00 0.00 94 1014.5
20260506121524 71 115 0.0 3.0 0.00 0.00 0.00 94 1014.4
20260506113020 68 4 0.0 0.0 0.00 0.00 0.00 94 1013.9
20260506103027 67 124 0.0 0.0 0.00 0.00 0.00 93 1013.0
20260506101523 66 124 0.0 0.0 0.00 0.00 0.00 93 1012.5
20260506100010 66 124 0.0 0.0 0.00 0.00 0.00 93 1012.6
20260506094527 66 124 0.0 0.0 0.00 0.00 0.00 93 1012.6
20260506090007 66 124 0.0 0.0 0.00 0.00 0.00 93 1012.7
20260506084510 66 124 0.0 0.0 0.00 0.00 0.00 92 1012.9
20260506081518 67 124 0.0 0.0 0.00 0.00 0.00 92 1013.1
20260506073013 67 152 0.0 0.0 0.00 0.00 0.00 92 1013.4
20260506071519 67 120 0.0 0.0 0.00 0.00 0.00 92 1013.3
20260506043013 66 114 0.0 0.0 0.00 0.00 0.00 91 1014.4
20260506041512 67 114 0.0 0.0 0.00 0.00 0.00 91 1014.6
20260506040018 67 114 0.0 0.0 0.00 0.00 0.00 91 1014.8
20260506034521 67 114 0.0 0.0 0.00 0.00 0.00 91 1014.7
20260506033022 67 114 0.0 0.0 0.00 0.00 0.00 91 1014.7
20260506031516 67 114 0.0 0.0 0.00 0.00 0.00 90 1014.7
20260506030018 68 114 0.0 0.0 0.00 0.00 0.00 90 1014.9
20260506024528 68 114 0.0 0.0 0.00 0.00 0.00 89 1014.7
20260506023024 68 114 0.0 0.0 0.00 0.00 0.00 89 1014.7
20260506021526 69 114 0.0 0.0 0.00 0.00 0.00 88 1014.5
20260506014519 70 113 0.0 0.0 0.00 0.00 0.00 86 1014.6
20260506013024 70 114 0.0 0.0 0.00 0.00 0.00 85 1014.5
20260506011527 70 134 0.0 1.0 0.00 0.00 0.00 84 1014.3
20260506010028 71 129 0.0 2.0 0.00 0.00 0.00 83 1014.3
20260506003023 72 138 0.0 3.0 0.00 0.00 0.00 81 1014.2
20260506001524 72 133 1.0 3.0 0.00 0.00 0.00 80 1014.1
20260506000026 73 191 0.0 5.0 0.00 0.00 0.00 79 1014.1
20260505233021 74 131 0.0 4.0 0.00 0.00 0.00 77 1014.3
20260505231524 74 82 1.0 6.0 0.00 0.00 0.00 75 1014.4
20260505230027 75 135 1.0 3.0 0.00 0.00 0.00 74 1014.3
20260505224530 75 56 2.0 6.0 0.00 0.00 0.00 74 1014.3
20260505221503 76 91 2.0 6.0 0.00 0.00 0.00 73 1013.9
20260505220010 76 44 2.0 7.0 0.00 0.00 0.00 71 1013.9
20260505213002 78 179 2.0 9.0 0.00 0.00 0.00 71 1014.2
20260505211503 78 115 2.0 6.0 0.00 0.00 0.00 70 1014.2
20260505210009 77 49 1.0 6.0 0.00 0.00 0.00 68 1014.3
20260505204517 78 141 2.0 6.0 0.00 0.00 0.00 67 1014.4